Flight Track Log - Related Links

Times and Time Zones

All times are in EDT time to prevent confusion due to time zone crossing. See the SWA303 flight status page for this flight to view local times or setup timezone preferences in your user account.

Time Position Orientation Groundspeed Altitude Reporting Facility
EDT Latitude Longitude Course Direction KTS MPH feet Rate Location/Type
Sun 06:22:48 PM 30.1556 -97.6028 119° Southeast 211 243 3,400  Level Houston Center
Sun 06:23:15 PM 30.1614 -97.5756 76° East 232 267 4,000 2,509 Climbing Houston Center
Sun 06:23:43 PM 30.1756 -97.5256 72° East 287 330 5,700 3,344 Climbing Houston Center
Sun 06:24:16 PM 30.1883 -97.4753 74° East 265 305 7,400 3,095 Climbing Houston Center
Sun 06:25:18 PM 30.2608 -97.4378 24° Northeast 289 333 10,600 2,390 Climbing Houston Center
Sun 06:26:19 PM 30.3497 -97.3986 21° North 339 390 12,300 2,341 Climbing Houston Center
Sun 06:27:21 PM 30.4444 -97.3539 22° Northeast 363 418 15,400 2,732 Climbing Houston Center
Sun 06:28:22 PM 30.5375 -97.3058 24° Northeast 365 420 17,900 2,164 Climbing Houston Center
Sun 06:29:23 PM 30.6136 -97.2158 45° Northeast 385 443 19,800 1,902 Climbing Houston Center
Sun 06:30:25 PM 30.6919 -97.1250 45° Northeast 399 459 21,800 1,073 Climbing Houston Center
Sun 06:31:26 PM 30.7894 -97.0125 45° Northeast 413 475 22,000 98 Climbing Houston Center
Sun 06:32:28 PM 30.8694 -96.9178 45° Northeast 415 478 22,000  Level Houston Center
Sun 06:33:29 PM 30.9508 -96.8261 44° Northeast 414 476 22,000  Level Houston Center
Sun 06:34:31 PM 31.0278 -96.7347 45° Northeast 400 460 22,000  Level Houston Center
Sun 06:35:32 PM 31.1069 -96.6439 44° Northeast 400 460 22,000  Level Houston Center
Sun 06:36:33 PM 31.1831 -96.5528 46° Northeast 398 458 22,000  Level Houston Center
Sun 06:37:35 PM 31.2600 -96.4642 45° Northeast 393 452 22,000  Level Houston Center
Sun 06:38:36 PM 31.3497 -96.3547 46° Northeast 392 451 22,000  Level Houston Center
Sun 06:39:38 PM 31.4256 -96.2628 46° Northeast 391 450 22,000  Level Houston Center
Sun 06:40:37 PM 31.5042 -96.1722 44° Northeast 394 453 22,000  Level Fort Worth Center
Sun 06:41:39 PM 31.6114 -96.1853 354° North 394 453 22,000  Level Fort Worth Center
Sun 06:42:41 PM 31.7197 -96.2094 349° North 396 456 22,000 -48 Level Fort Worth Center
Sun 06:43:43 PM 31.8275 -96.2325 350° North 394 453 21,900 -1,161 Descending Fort Worth Center
Sun 06:44:45 PM 31.9331 -96.2578 349° North 393 452 19,600 -2,537 Descending Fort Worth Center
Sun 06:45:46 PM 32.0556 -96.2872 348° North 380 437 16,700 -2,537 Descending Fort Worth Center
Sun 06:46:48 PM 32.1550 -96.3089 350° North 370 426 14,400 -2,341 Descending Fort Worth Center
Sun 06:47:49 PM 32.2619 -96.3292 351° North 364 419 11,900 -2,000 Descending Fort Worth Center
Sun 06:48:51 PM 32.3536 -96.3517 348° North 341 392 10,300 -1,355 Descending Fort Worth Center
Sun 06:49:53 PM 32.4356 -96.3692 350° North 300 345 9,100 -1,561 Descending Fort Worth Center
Sun 06:50:54 PM 32.5142 -96.4158 333° Northwest 294 338 7,100 -1,902 Descending Fort Worth Center
Sun 06:51:56 PM 32.5869 -96.4592 333° Northwest 293 337 5,200 -976 Descending Fort Worth Center
Sun 06:52:57 PM 32.6564 -96.5017 333° Northwest 284 327 5,100 -49 Descending Fort Worth Center
Sun 06:53:59 PM 32.7258 -96.5581 326° Northwest 281 323 5,100 -532 Level Fort Worth Center
Sun 06:55:01 PM 32.7806 -96.6253 314° West 281 323 4,000 -829 Descending Fort Worth Center
Sun 06:56:02 PM 32.8328 -96.6906 314° West 274 315 3,400 -439 Descending Fort Worth Center
Sun 06:57:04 PM 32.8836 -96.7553 313° West 271 312 3,100 -195 Descending Fort Worth Center
Sun 06:58:05 PM 32.9361 -96.8208 314° West 251 289 3,000 -488 Descending Fort Worth Center
Sun 06:59:07 PM 32.9508 -96.8822 286° West 211 243 2,100 -634 Descending Fort Worth Center
Sun 07:00:08 PM 32.9089 -96.9078 207° Southwest 171 197 1,700 -537 Descending Fort Worth Center
Sun 07:01:10 PM 32.8778 -96.8819 145° Southeast 139 160 1,000 -585 Descending Fort Worth Center
Sun 07:02:11 PM 32.8544 -96.8542 135° Southeast 131 151 500 -492 Descending Fort Worth Center

Login

Don't have an account? Register now (free) for customized features, flight alerts, and more!